This demonstration page uses our WeatherBlox Daily Observations layout. Learn more.

Left ArrowRight Arrow

Hourly Observations for February 9, 2020

Temp ( °F °C ) Dew Point ( °F °C ) Humidity (%) Winds ( mph kmh ) Pressure ( in mb ) Visibility ( mi km ) Precip ( " mm )
12:53 am 00:53 Cloudy 23 -5 17 -8.3 78 78 WSW 12 19 30.33 1027 10 16 0.00 0.00
1:53 am 01:53 Cloudy 19 -7.2 15 -9.4 84 84 SW 13 20 30.34 1028 10 16 0.00 0.00
2:53 am 02:53 Partly Cloudy 18 -7.8 15 -9.4 88 88 SW 13 20 30.33 1027 10 16 0.00 0.00
3:53 am 03:53 Clear 13 -10.6 11 -11.7 92 92 SW 12 19 30.33 1027 10 16 0.00 0.00
4:53 am 04:53 Clear 13 -10.6 11 -11.7 92 92 SW 12 19 30.31 1026 10 16 0.00 0.00
5:53 am 05:53 Clear 15 -9.4 11 -11.7 84 84 SW 14 22 30.27 1025 10 16 0.00 0.00
6:53 am 06:53 Clear 16 -8.9 12 -11.1 84 84 SW 15 24 30.24 1024 10 16 0.00 0.00
7:53 am 07:53 Sunny 19 -7.2 15 -9.4 84 84 SW 20 31 30.19 1022 10 16 0.00 0.00
8:53 am 08:53 Sunny 22 -5.6 15 -9.4 75 75 SW 26 43 30.14 1021 10 16 0.00 0.00
9:53 am 09:53 Sunny 25 -3.9 15 -9.4 66 66 SW 25 41 30.08 1019 10 16 0.00 0.00
10:53 am 10:53 Sunny 27 -2.8 16 -8.9 63 63 SW 25 41 30.07 1018 10 16 0.00 0.00
11:53 am 11:53 Sunny 27 -2.8 17 -8.3 66 66 SW 29 46 30.02 1017 10 16 0.00 0.00
12:53 pm 12:53 Sunny 30 -1.1 20 -6.7 66 66 SW 24 39 29.98 1015 10 16 0.00 0.00
1:53 pm 13:53 Mostly Cloudy 33 0.6 22 -5.6 64 64 WSW 17 28 29.97 1015 10 16 0.00 0.00
2:53 pm 14:53 Cloudy 34 1.1 22 -5.6 61 61 WSW 17 28 29.96 1014 10 16 0.00 0.00
3:53 pm 15:53 Cloudy 32 0 23 -5 69 69 WSW 13 20 29.97 1015 10 16 0.00 0.00
4:53 pm 16:53 Cloudy 33 0.6 23 -5 66 66 WNW 10 17 30.00 1016 10 16 0.00 0.00
5:53 pm 17:53 Cloudy 30 -1.1 25 -3.9 82 82 WNW 14 22 30.02 1017 10 16 0.00 0.00
6:53 pm 18:53 Cloudy 29 -1.7 25 -3.9 85 85 W 12 19 30.04 1017 10 16 0.00 0.00
7:53 pm 19:53 Cloudy 29 -1.7 25 -3.9 85 85 W 9 15 30.05 1018 10 16 0.00 0.00
8:14 pm 20:14 Cloudy 30 -1.1 26 -3.3 85 85 W 13 20 30.06 1018 10 16 0.00 0.00
8:39 pm 20:39 Mostly Cloudy 30 -1.1 26 -3.3 85 85 W 13 20 30.06 1018 10 16 0.00 0.00
8:53 pm 20:53 Mostly Cloudy 30 -1.1 26 -3.3 85 85 W 13 20 30.04 1017 10 16 0.00 0.00
9:53 pm 21:53 Mostly Cloudy 29 -1.7 24 -4.4 82 82 W 12 19 30.06 1018 10 16 0.00 0.00
10:53 pm 22:53 Mostly Cloudy 27 -2.8 23 -5 85 85 W 12 19 30.09 1019 10 16 0.00 0.00
11:51 pm 23:51 Partly Cloudy with Scattered Snow Showers 28 -2 25 -4 86 86 WNW 16 26 30.12 1020 8 13 0.00 0.00
11:53 pm 23:53 Partly Cloudy with Isolated Snow Showers 28 -2.2 25 -3.9 88 88 W 15 24 30.10 1019 8 13 0.00 0.00

Powered by AerisWeather